{"data":{"norad_id":48238,"epoch":"2026-09-18T18:29:42.157248Z","epoch_age_seconds":175186,"freshness":"STALE","line1":"1 48238U 21031AE  26261.77062682  .00000054  00000+0  11242-3 0  9998","line2":"2 48238  87.8905 271.0368 0002233  84.6792 275.4593 13.14502321260608","mean_motion":13.14502321,"eccentricity":0.0002233,"inclination_deg":87.8905,"raan_deg":271.0368,"arg_perigee_deg":84.6792,"mean_anomaly_deg":275.4593,"bstar":0.00011242,"rev_number":26060,"period_min":109.54716298291,"perigee_km":1204.098705625,"apogee_km":1207.4856884044,"semimajor_km":7583.9291970147,"source":"CELESTRAK","updated_at":"2026-09-20T09:00:44.612761Z"}}